Time,TemperatureF,DewpointF,PressureIn,WindDirection,WindDirectionDegrees,WindSpeedMPH,WindSpeedGustMPH,Humidity,HourlyPrecipIn,Conditions,Clouds,dailyrainin,SoftwareType,DateUTC
2013-06-16 00:00:00,69.4,62.6,29.73,East,90,0.0,1.0,79,0.00,CLR,,0.00,WeatherDisplay:10.37,2013-06-15 22:00:00,
2013-06-16 00:05:00,69.3,62.8,29.73,East,90,0.0,1.0,80,0.00,CLR,,0.00,WeatherDisplay:10.37,2013-06-15 22:05:00,
2013-06-16 00:10:00,69.3,62.8,29.73,East,90,0.0,0.0,80,0.00,CLR,,0.00,WeatherDisplay:10.37,2013-06-15 22:10:00,
2013-06-16 00:15:00,69.3,62.8,29.73,East,90,0.0,0.0,80,0.00,CLR,,0.00,WeatherDisplay:10.37,2013-06-15 22:15:00,
2013-06-16 00:20:00,69.3,62.8,29.73,East,90,0.0,1.0,80,0.00,CLR,,0.00,WeatherDisplay:10.37,2013-06-15 22:20:00,
2013-06-16 00:25:00,69.3,62.8,29.73,West,270,0.0,1.0,80,0.00,CLR,,0.00,WeatherDisplay:10.37,2013-06-15 22:25:00,
2013-06-16 00:30:00,69.3,62.8,29.73,West,270,0.0,1.0,80,0.00,CLR,,0.00,WeatherDisplay:10.37,2013-06-15 22:30:00,
2013-06-16 00:35:00,69.3,62.8,29.73,West,270,0.0,1.0,80,0.00,CLR,,0.00,WeatherDisplay:10.37,2013-06-15 22:35:00,
2013-06-16 00:40:00,69.3,62.8,29.73,West,270,0.0,1.0,80,0.00,CLR,,0.00,WeatherDisplay:10.37,2013-06-15 22:40:00,
2013-06-16 00:45:00,69.3,62.8,29.73,West,270,0.0,1.0,80,0.00,CLR,,0.00,WeatherDisplay:10.37,2013-06-15 22:45:00,
2013-06-16 00:50:00,69.3,62.8,29.73,SW,236,0.0,1.0,80,0.00,CLR,,0.00,WeatherDisplay:10.37,2013-06-15 22:50:00,
2013-06-16 00:55:00,69.3,62.8,29.73,South,186,0.0,0.0,80,0.00,CLR,,0.00,WeatherDisplay:10.37,2013-06-15 22:55:00,
2013-06-16 01:00:00,69.3,62.8,29.73,South,180,0.0,0.0,80,0.00,CLR,,0.00,WeatherDisplay:10.37,2013-06-15 23:00:00,
2013-06-16 01:05:00,69.3,62.8,29.74,SSE,162,0.0,1.0,80,0.00,CLR,,0.00,WeatherDisplay:10.37,2013-06-15 23:05:00,
2013-06-16 01:10:00,69.3,62.8,29.74,SE,139,0.0,1.0,80,0.00,CLR,,0.00,WeatherDisplay:10.37,2013-06-15 23:10:00,
2013-06-16 01:15:00,69.3,62.8,29.74,SE,135,0.0,1.0,80,0.00,CLR,,0.00,WeatherDisplay:10.37,2013-06-15 23:15:00,
2013-06-16 01:20:00,69.3,63.2,29.74,SE,135,0.0,1.0,81,0.00,CLR,,0.00,WeatherDisplay:10.37,2013-06-15 23:20:00,
2013-06-16 01:25:00,69.3,63.2,29.74,SE,135,0.0,1.0,81,0.00,CLR,,0.00,WeatherDisplay:10.37,2013-06-15 23:25:00,
2013-06-16 01:30:00,69.3,63.2,29.74,SE,135,0.0,1.0,81,0.00,CLR,,0.00,WeatherDisplay:10.37,2013-06-15 23:30:00,
2013-06-16 01:35:00,68.9,62.8,29.74,ESE,118,1.0,2.0,81,0.00,CLR,,0.00,WeatherDisplay:10.37,2013-06-15 23:35:00,
2013-06-16 01:40:00,68.9,62.8,29.74,ENE,77,1.0,2.0,81,0.00,CLR,,0.00,WeatherDisplay:10.37,2013-06-15 23:40:00,
2013-06-16 01:45:00,68.9,62.8,29.74,ENE,68,1.0,2.0,81,0.00,CLR,,0.00,WeatherDisplay:10.37,2013-06-15 23:45:00,
2013-06-16 01:50:00,68.4,62.3,29.75,NNE,31,0.0,2.0,81,0.00,CLR,,0.00,WeatherDisplay:10.37,2013-06-15 23:50:00,
2013-06-16 01:55:00,68.4,62.3,29.75,North,3,0.0,1.0,81,0.00,CLR,,0.00,WeatherDisplay:10.37,2013-06-15 23:55:00,
2013-06-16 02:00:00,68.4,62.3,29.75,North,0,0.0,1.0,81,0.00,CLR,,0.00,WeatherDisplay:10.37,2013-06-16 00:00:00,
2013-06-16 02:05:00,68.5,62.8,29.75,NW,318,0.0,2.0,82,0.00,CLR,,0.00,WeatherDisplay:10.37,2013-06-16 00:05:00,
2013-06-16 02:10:00,68.5,62.8,29.75,SW,230,0.0,2.0,82,0.00,CLR,,0.00,WeatherDisplay:10.37,2013-06-16 00:10:00,
2013-06-16 02:15:00,68.5,62.8,29.75,SW,225,0.0,2.0,82,0.00,CLR,,0.00,WeatherDisplay:10.37,2013-06-16 00:15:00,
2013-06-16 02:20:00,69.3,63.5,29.75,SW,225,0.0,2.0,82,0.00,CLR,,0.00,WeatherDisplay:10.37,2013-06-16 00:20:00,
2013-06-16 02:25:00,69.3,63.5,29.75,NE,45,0.0,2.0,82,0.00,CLR,,0.00,WeatherDisplay:10.37,2013-06-16 00:25:00,
2013-06-16 02:30:00,69.3,63.5,29.75,NE,45,0.0,2.0,82,0.00,CLR,,0.00,WeatherDisplay:10.37,2013-06-16 00:30:00,
2013-06-16 02:35:00,70.0,64.2,29.75,ENE,63,0.0,2.0,82,0.00,CLR,,0.00,WeatherDisplay:10.37,2013-06-16 00:35:00,
2013-06-16 02:40:00,70.0,64.2,29.75,East,86,0.0,1.0,82,0.00,CLR,,0.00,WeatherDisplay:10.37,2013-06-16 00:40:00,
2013-06-16 02:45:00,70.0,64.2,29.75,East,90,0.0,1.0,82,0.00,CLR,,0.00,WeatherDisplay:10.37,2013-06-16 00:45:00,
2013-06-16 02:50:00,70.3,63.9,29.75,ESE,102,1.0,2.0,80,0.00,CLR,,0.00,WeatherDisplay:10.37,2013-06-16 00:50:00,
2013-06-16 02:55:00,70.3,63.9,29.75,SE,128,1.0,2.0,80,0.00,CLR,,0.00,WeatherDisplay:10.37,2013-06-16 00:55:00,
2013-06-16 03:00:00,70.3,63.9,29.75,SE,135,1.0,2.0,80,0.00,CLR,,0.00,WeatherDisplay:10.37,2013-06-16 01:00:00,
2013-06-16 03:05:00,70.7,64.2,29.75,ESE,117,1.0,2.0,80,0.00,CLR,,0.00,WeatherDisplay:10.37,2013-06-16 01:05:00,
2013-06-16 03:10:00,70.7,64.2,29.75,East,94,1.0,2.0,80,0.00,CLR,,0.00,WeatherDisplay:10.37,2013-06-16 01:10:00,
2013-06-16 03:15:00,70.7,64.2,29.75,East,90,1.0,2.0,80,0.00,CLR,,0.00,WeatherDisplay:10.37,2013-06-16 01:15:00,
2013-06-16 03:20:00,71.4,64.9,29.76,ESE,118,1.0,3.0,80,0.00,CLR,,0.00,WeatherDisplay:10.37,2013-06-16 01:20:00,
2013-06-16 03:25:00,71.4,64.9,29.76,SE,133,1.0,3.0,80,0.00,CLR,,0.00,WeatherDisplay:10.37,2013-06-16 01:25:00,
2013-06-16 03:30:00,71.4,64.9,29.76,SE,135,1.0,3.0,80,0.00,CLR,,0.00,WeatherDisplay:10.37,2013-06-16 01:30:00,
2013-06-16 03:35:00,72.0,65.5,29.76,ESE,117,1.0,3.0,80,0.00,CLR,,0.00,WeatherDisplay:10.37,2013-06-16 01:35:00,
2013-06-16 03:40:00,72.0,65.5,29.76,East,94,1.0,3.0,80,0.00,CLR,,0.00,WeatherDisplay:10.37,2013-06-16 01:40:00,
2013-06-16 03:45:00,72.0,65.5,29.76,East,90,1.0,3.0,80,0.00,CLR,,0.00,WeatherDisplay:10.37,2013-06-16 01:45:00,
2013-06-16 03:50:00,72.9,66.0,29.76,East,90,0.0,3.0,79,0.00,CLR,,0.00,WeatherDisplay:10.37,2013-06-16 01:50:00,
2013-06-16 03:55:00,72.9,66.0,29.76,West,270,0.0,1.0,79,0.00,CLR,,0.00,WeatherDisplay:10.37,2013-06-16 01:55:00,
2013-06-16 04:00:00,72.9,66.0,29.76,West,270,0.0,1.0,79,0.00,CLR,,0.00,WeatherDisplay:10.37,2013-06-16 02:00:00,
2013-06-16 04:05:00,73.9,67.0,29.76,West,270,1.0,2.0,79,0.00,CLR,,0.00,WeatherDisplay:10.37,2013-06-16 02:05:00,
2013-06-16 04:10:00,73.9,67.0,29.76,East,90,1.0,2.0,79,0.00,CLR,,0.00,WeatherDisplay:10.37,2013-06-16 02:10:00,
2013-06-16 04:15:00,73.9,67.0,29.76,East,90,1.0,2.0,79,0.00,CLR,,0.00,WeatherDisplay:10.37,2013-06-16 02:15:00,
2013-06-16 04:20:00,74.5,66.8,29.76,ESE,118,1.0,2.0,77,0.00,CLR,,0.00,WeatherDisplay:10.37,2013-06-16 02:20:00,
2013-06-16 04:25:00,74.5,66.8,29.76,SE,133,1.0,2.0,77,0.00,CLR,,0.00,WeatherDisplay:10.37,2013-06-16 02:25:00,
2013-06-16 04:30:00,74.5,66.8,29.76,SE,135,1.0,2.0,77,0.00,CLR,,0.00,WeatherDisplay:10.37,2013-06-16 02:30:00,
2013-06-16 04:35:00,75.2,67.1,29.76,SE,135,1.0,2.0,76,0.00,CLR,,0.00,WeatherDisplay:10.37,2013-06-16 02:35:00,
2013-06-16 04:40:00,75.2,67.1,29.76,SE,135,1.0,2.0,76,0.00,CLR,,0.00,WeatherDisplay:10.37,2013-06-16 02:40:00,
2013-06-16 04:45:00,75.2,67.1,29.76,SE,135,1.0,2.0,76,0.00,CLR,,0.00,WeatherDisplay:10.37,2013-06-16 02:45:00,
2013-06-16 04:50:00,76.5,67.9,29.76,ESE,104,2.0,4.0,75,0.00,CLR,,0.00,WeatherDisplay:10.37,2013-06-16 02:50:00,
2013-06-16 04:55:00,76.5,67.9,29.76,East,91,2.0,4.0,75,0.00,CLR,,0.00,WeatherDisplay:10.37,2013-06-16 02:55:00,
2013-06-16 05:00:00,76.5,67.9,29.76,East,90,2.0,4.0,75,0.00,CLR,,0.00,WeatherDisplay:10.37,2013-06-16 03:00:00,
2013-06-16 05:05:00,77.0,67.7,29.76,East,83,1.0,4.0,73,0.00,CLR,,0.00,WeatherDisplay:10.37,2013-06-16 03:05:00,
2013-06-16 05:10:00,77.0,67.7,29.76,ENE,57,1.0,2.0,73,0.00,CLR,,0.00,WeatherDisplay:10.37,2013-06-16 03:10:00,
2013-06-16 05:15:00,77.0,67.7,29.76,NE,45,1.0,2.0,73,0.00,CLR,,0.00,WeatherDisplay:10.37,2013-06-16 03:15:00,
2013-06-16 05:20:00,77.5,68.2,29.76,ENE,61,2.0,3.0,73,0.00,CLR,,0.00,WeatherDisplay:10.37,2013-06-16 03:20:00,
2013-06-16 05:25:00,77.5,68.2,29.76,ENE,67,2.0,3.0,73,0.00,CLR,,0.00,WeatherDisplay:10.37,2013-06-16 03:25:00,
2013-06-16 05:30:00,77.5,68.2,29.76,ENE,68,2.0,3.0,73,0.00,CLR,,0.00,WeatherDisplay:10.37,2013-06-16 03:30:00,
2013-06-16 05:35:00,78.1,68.3,29.76,ENE,61,1.0,4.0,72,0.00,CLR,,0.00,WeatherDisplay:10.37,2013-06-16 03:35:00,
2013-06-16 05:40:00,78.1,68.3,29.76,NE,48,1.0,4.0,72,0.00,CLR,,0.00,WeatherDisplay:10.37,2013-06-16 03:40:00,
2013-06-16 05:45:00,78.1,68.3,29.76,NE,45,1.0,4.0,72,0.00,CLR,,0.00,WeatherDisplay:10.37,2013-06-16 03:45:00,
2013-06-16 05:50:00,79.2,68.9,29.76,NE,45,0.0,4.0,71,0.00,CLR,,0.00,WeatherDisplay:10.37,2013-06-16 03:50:00,
2013-06-16 05:55:00,79.2,68.9,29.76,SW,225,0.0,2.0,71,0.00,CLR,,0.00,WeatherDisplay:10.37,2013-06-16 03:55:00,
2013-06-16 06:00:00,79.2,68.9,29.76,SW,225,0.0,2.0,71,0.00,CLR,,0.00,WeatherDisplay:10.37,2013-06-16 04:00:00,
2013-06-16 06:05:00,79.5,68.9,29.76,SSW,204,1.0,2.0,70,0.00,CLR,,0.00,WeatherDisplay:10.37,2013-06-16 04:05:00,
2013-06-16 06:10:00,79.5,68.9,29.76,East,99,1.0,2.0,70,0.00,CLR,,0.00,WeatherDisplay:10.37,2013-06-16 04:10:00,
2013-06-16 06:15:00,79.5,68.9,29.76,East,90,1.0,2.0,70,0.00,CLR,,0.00,WeatherDisplay:10.37,2013-06-16 04:15:00,
2013-06-16 06:20:00,80.2,69.1,29.76,East,90,1.0,4.0,69,0.00,CLR,,0.00,WeatherDisplay:10.37,2013-06-16 04:20:00,
2013-06-16 06:25:00,80.2,69.1,29.76,East,90,1.0,4.0,69,0.00,CLR,,0.00,WeatherDisplay:10.37,2013-06-16 04:25:00,
2013-06-16 06:30:00,80.2,69.1,29.76,East,90,1.0,4.0,69,0.00,CLR,,0.00,WeatherDisplay:10.37,2013-06-16 04:30:00,
2013-06-16 06:35:00,81.5,69.5,29.76,SE,129,1.0,4.0,67,0.00,CLR,,0.00,WeatherDisplay:10.37,2013-06-16 04:35:00,
2013-06-16 06:40:00,81.5,69.5,29.76,SSW,196,1.0,2.0,67,0.00,CLR,,0.00,WeatherDisplay:10.37,2013-06-16 04:40:00,
2013-06-16 06:45:00,81.5,69.5,29.76,SSW,202,1.0,2.0,67,0.00,CLR,,0.00,WeatherDisplay:10.37,2013-06-16 04:45:00,
2013-06-16 06:50:00,82.2,69.7,29.75,SSW,197,1.0,2.0,66,0.00,CLR,,0.00,WeatherDisplay:10.37,2013-06-16 04:50:00,
2013-06-16 06:55:00,82.2,69.7,29.75,South,184,1.0,2.0,66,0.00,CLR,,0.00,WeatherDisplay:10.37,2013-06-16 04:55:00,
2013-06-16 07:00:00,82.2,69.7,29.75,South,180,1.0,2.0,66,0.00,CLR,,0.00,WeatherDisplay:10.37,2013-06-16 05:00:00,
2013-06-16 07:05:00,81.9,68.9,29.76,South,180,1.0,2.0,65,0.00,CLR,,0.00,WeatherDisplay:10.37,2013-06-16 05:05:00,
2013-06-16 07:10:00,81.9,68.9,29.76,North,0,1.0,2.0,65,0.00,CLR,,0.00,WeatherDisplay:10.37,2013-06-16 05:10:00,
2013-06-16 08:35:00,82.8,69.3,29.75,SSE,152,2.0,4.0,64,0.00,CLR,,0.00,WeatherDisplay:10.37,2013-06-16 06:35:00,
2013-06-16 08:40:00,82.8,69.3,29.75,South,173,2.0,4.0,64,0.00,CLR,,0.00,WeatherDisplay:10.37,2013-06-16 06:40:00,
2013-06-16 08:45:00,82.8,69.3,29.75,South,180,2.0,4.0,64,0.00,CLR,,0.00,WeatherDisplay:10.37,2013-06-16 06:45:00,
2013-06-16 08:50:00,83.1,69.7,29.75,South,170,1.0,4.0,64,0.00,CLR,,0.00,WeatherDisplay:10.37,2013-06-16 06:50:00,
2013-06-16 08:55:00,83.1,69.7,29.75,SE,146,1.0,4.0,64,0.00,CLR,,0.00,WeatherDisplay:10.37,2013-06-16 06:55:00,
2013-06-16 09:00:00,83.1,69.7,29.75,SE,135,1.0,4.0,64,0.00,CLR,,0.00,WeatherDisplay:10.37,2013-06-16 07:00:00,
2013-06-16 09:05:00,83.8,70.4,29.75,ESE,112,3.0,7.0,64,0.00,CLR,,0.00,WeatherDisplay:10.37,2013-06-16 07:05:00,
2013-06-16 09:10:00,83.8,70.4,29.75,East,94,3.0,7.0,64,0.00,CLR,,0.00,WeatherDisplay:10.37,2013-06-16 07:10:00,
2013-06-16 09:15:00,83.8,70.4,29.75,East,90,3.0,7.0,64,0.00,CLR,,0.00,WeatherDisplay:10.37,2013-06-16 07:15:00,
2013-06-16 09:20:00,83.8,70.4,29.74,East,101,3.0,7.0,64,0.00,CLR,,0.00,WeatherDisplay:10.37,2013-06-16 07:20:00,
2013-06-16 09:25:00,83.8,70.4,29.74,SE,125,3.0,7.0,64,0.00,CLR,,0.00,WeatherDisplay:10.37,2013-06-16 07:25:00,
2013-06-16 09:30:00,83.8,70.4,29.74,SE,135,3.0,7.0,64,0.00,CLR,,0.00,WeatherDisplay:10.37,2013-06-16 07:30:00,
2013-06-16 09:35:00,83.5,70.5,29.75,SSE,148,3.0,7.0,65,0.00,CLR,,0.00,WeatherDisplay:10.37,2013-06-16 07:35:00,
2013-06-16 09:40:00,83.5,70.5,29.75,South,171,3.0,6.0,65,0.00,CLR,,0.00,WeatherDisplay:10.37,2013-06-16 07:40:00,
2013-06-16 09:45:00,83.5,70.5,29.75,South,180,3.0,6.0,65,0.00,CLR,,0.00,WeatherDisplay:10.37,2013-06-16 07:45:00,
2013-06-16 09:50:00,83.3,70.3,29.74,South,185,2.0,6.0,65,0.00,CLR,,0.00,WeatherDisplay:10.37,2013-06-16 07:50:00,
2013-06-16 09:55:00,83.3,70.3,29.74,SSW,196,2.0,6.0,65,0.00,CLR,,0.00,WeatherDisplay:10.37,2013-06-16 07:55:00,
2013-06-16 10:00:00,83.3,70.3,29.74,SSW,202,2.0,6.0,65,0.00,CLR,,0.00,WeatherDisplay:10.37,2013-06-16 08:00:00,
2013-06-16 10:05:00,83.3,70.8,29.74,SSE,161,3.0,9.0,66,0.00,CLR,,0.00,WeatherDisplay:10.37,2013-06-16 08:05:00,
2013-06-16 10:10:00,83.3,70.8,29.74,NE,49,3.0,9.0,66,0.00,CLR,,0.00,WeatherDisplay:10.37,2013-06-16 08:10:00,
2013-06-16 10:15:00,83.3,70.8,29.74,NE,45,3.0,9.0,66,0.00,CLR,,0.00,WeatherDisplay:10.37,2013-06-16 08:15:00,
2013-06-16 10:20:00,83.1,70.6,29.74,ENE,75,5.0,9.0,66,0.00,CLR,,0.00,WeatherDisplay:10.37,2013-06-16 08:20:00,
2013-06-16 10:25:00,83.1,70.6,29.74,SE,146,5.0,9.0,66,0.00,CLR,,0.00,WeatherDisplay:10.37,2013-06-16 08:25:00,
2013-06-16 10:30:00,83.1,70.6,29.74,SSE,158,5.0,9.0,66,0.00,CLR,,0.00,WeatherDisplay:10.37,2013-06-16 08:30:00,
2013-06-16 10:35:00,84.0,71.4,29.73,SSE,158,2.0,9.0,66,0.00,CLR,,0.00,WeatherDisplay:10.37,2013-06-16 08:35:00,
2013-06-16 10:40:00,84.0,71.4,29.73,SSE,158,2.0,6.0,66,0.00,CLR,,0.00,WeatherDisplay:10.37,2013-06-16 08:40:00,
2013-06-16 10:45:00,84.0,71.4,29.73,SSE,158,2.0,6.0,66,0.00,CLR,,0.00,WeatherDisplay:10.37,2013-06-16 08:45:00,
2013-06-16 10:50:00,83.3,71.6,29.73,ESE,122,3.0,8.0,68,0.00,CLR,,0.00,WeatherDisplay:10.37,2013-06-16 08:50:00,
2013-06-16 10:55:00,83.3,71.6,29.73,NE,55,3.0,8.0,68,0.00,CLR,,0.00,WeatherDisplay:10.37,2013-06-16 08:55:00,
2013-06-16 11:00:00,83.3,71.6,29.73,NE,45,3.0,8.0,68,0.00,CLR,,0.00,WeatherDisplay:10.37,2013-06-16 09:00:00,
2013-06-16 11:05:00,83.5,72.2,29.73,ENE,62,2.0,8.0,69,0.00,CLR,,0.00,WeatherDisplay:10.37,2013-06-16 09:05:00,
2013-06-16 11:10:00,83.5,72.2,29.73,ESE,116,2.0,7.0,69,0.00,CLR,,0.00,WeatherDisplay:10.37,2013-06-16 09:10:00,
2013-06-16 11:13:00,81.9,68.9,29.76,NE,45,2.3,0.0,65,0.00,CLR,,0.00,WeatherDisplay:10.37,2013-06-16 09:13:00,
2013-06-16 11:14:00,81.9,68.9,29.76,NE,45,2.3,0.0,65,0.00,CLR,,0.00,WeatherDisplay:10.37,2013-06-16 09:14:00,
2013-06-16 11:15:00,83.5,72.2,29.73,SE,135,2.0,7.0,69,0.00,CLR,,0.00,WeatherDisplay:10.37,2013-06-16 09:15:00,
2013-06-16 11:19:00,82.4,69.9,29.76,SE,135,5.8,5.8,66,0.00,CLR,,0.00,WeatherDisplay:10.37,2013-06-16 09:19:00,
2013-06-16 11:20:00,83.7,72.0,29.73,ESE,122,2.0,7.0,68,0.00,CLR,,0.00,WeatherDisplay:10.37,2013-06-16 09:20:00,
2013-06-16 11:24:00,82.8,69.8,29.76,SE,135,3.5,3.5,65,0.00,CLR,,0.00,WeatherDisplay:10.37,2013-06-16 09:24:00,
2013-06-16 11:25:00,83.7,72.0,29.73,East,99,2.0,6.0,68,0.00,CLR,,0.00,WeatherDisplay:10.37,2013-06-16 09:25:00,
2013-06-16 11:29:00,82.4,69.4,29.76,NE,45,2.3,2.3,65,0.00,CLR,,0.00,WeatherDisplay:10.37,2013-06-16 09:29:00,
2013-06-16 11:30:00,83.7,72.0,29.73,East,90,2.0,6.0,68,0.00,CLR,,0.00,WeatherDisplay:10.37,2013-06-16 09:30:00,
2013-06-16 11:34:00,82.6,69.6,29.76,South,180,5.8,5.8,65,0.00,CLR,,0.00,WeatherDisplay:10.37,2013-06-16 09:34:00,
2013-06-16 11:35:00,83.5,72.2,29.73,ESE,104,1.0,6.0,69,0.00,CLR,,0.00,WeatherDisplay:10.37,2013-06-16 09:35:00,
2013-06-16 11:39:00,82.8,70.2,29.76,SW,225,5.8,5.8,66,0.00,CLR,,0.00,WeatherDisplay:10.37,2013-06-16 09:39:00,
2013-06-16 11:40:00,83.5,72.2,29.73,SE,142,1.0,4.0,69,0.00,CLR,,0.00,WeatherDisplay:10.37,2013-06-16 09:40:00,
2013-06-16 11:44:00,82.8,70.2,29.76,North,0,8.1,8.1,66,0.00,CLR,,0.00,WeatherDisplay:10.37,2013-06-16 09:44:00,
2013-06-16 11:45:00,83.5,72.2,29.73,SSE,158,1.0,4.0,69,0.00,CLR,,0.00,WeatherDisplay:10.37,2013-06-16 09:45:00,
2013-06-16 11:49:00,82.6,70.5,29.75,South,180,5.8,5.8,67,0.00,CLR,,0.00,WeatherDisplay:10.37,2013-06-16 09:49:00,
2013-06-16 11:50:00,83.7,72.0,29.73,ESE,123,3.0,7.0,68,0.00,CLR,,0.00,WeatherDisplay:10.37,2013-06-16 09:50:00,
2013-06-16 11:54:00,82.4,70.3,29.76,South,180,6.9,6.9,67,0.00,CLR,,0.00,WeatherDisplay:10.37,2013-06-16 09:54:00,
2013-06-16 11:55:00,83.7,72.0,29.73,East,95,3.0,7.0,68,0.00,CLR,,0.00,WeatherDisplay:10.37,2013-06-16 09:55:00,
2013-06-16 11:59:00,82.4,70.3,29.76,SW,225,8.1,8.1,67,0.00,CLR,,0.00,WeatherDisplay:10.37,2013-06-16 09:59:00,
2013-06-16 12:00:00,83.7,72.0,29.73,East,90,3.0,7.0,68,0.00,CLR,,0.00,WeatherDisplay:10.37,2013-06-16 10:00:00,
2013-06-16 12:04:00,82.0,69.6,29.75,SE,135,5.8,5.8,66,0.00,CLR,,0.00,WeatherDisplay:10.37,2013-06-16 10:04:00,
2013-06-16 12:05:00,84.4,72.2,29.73,ESE,104,2.0,7.0,67,0.00,CLR,,0.00,WeatherDisplay:10.37,2013-06-16 10:05:00,
2013-06-16 12:09:00,82.2,69.7,29.75,South,180,6.9,6.9,66,0.00,CLR,,0.00,WeatherDisplay:10.37,2013-06-16 10:09:00,
2013-06-16 12:10:00,84.4,72.2,29.73,SSE,157,2.0,4.0,67,0.00,CLR,,0.00,WeatherDisplay:10.37,2013-06-16 10:10:00,
2013-06-16 12:14:00,82.4,69.9,29.75,NE,45,5.8,5.8,66,0.00,CLR,,0.00,WeatherDisplay:10.37,2013-06-16 10:14:00,
2013-06-16 12:15:00,84.4,72.2,29.73,South,180,2.0,4.0,67,0.00,CLR,,0.00,WeatherDisplay:10.37,2013-06-16 10:15:00,
2013-06-16 12:19:00,82.6,69.6,29.76,NW,315,8.1,8.1,65,0.00,CLR,,0.00,WeatherDisplay:10.37,2013-06-16 10:19:00,
2013-06-16 12:20:00,83.7,71.5,29.72,SSE,159,5.0,11.0,67,0.00,CLR,,0.00,WeatherDisplay:10.37,2013-06-16 10:20:00,
2013-06-16 12:24:00,83.1,69.7,29.75,South,180,5.8,5.8,64,0.00,CLR,,0.00,WeatherDisplay:10.37,2013-06-16 10:24:00,
2013-06-16 12:25:00,83.7,71.5,29.72,SE,140,5.0,11.0,67,0.00,CLR,,0.00,WeatherDisplay:10.37,2013-06-16 10:25:00,
2013-06-16 12:29:00,83.1,69.7,29.75,SSW,202,6.9,6.9,64,0.00,CLR,,0.00,WeatherDisplay:10.37,2013-06-16 10:29:00,
2013-06-16 12:30:00,83.7,71.5,29.72,SE,135,5.0,11.0,67,0.00,CLR,,0.00,WeatherDisplay:10.37,2013-06-16 10:30:00,
2013-06-16 12:35:00,83.1,71.0,29.72,SE,145,3.0,11.0,67,0.00,CLR,,0.00,WeatherDisplay:10.37,2013-06-16 10:35:00,
2013-06-16 12:40:00,83.1,71.0,29.72,South,169,3.0,6.0,67,0.00,CLR,,0.00,WeatherDisplay:10.37,2013-06-16 10:40:00,
2013-06-16 12:45:00,83.1,71.0,29.72,South,180,3.0,6.0,67,0.00,CLR,,0.00,WeatherDisplay:10.37,2013-06-16 10:45:00,
2013-06-16 12:50:00,83.7,71.5,29.72,South,180,2.0,6.0,67,0.00,CLR,,0.00,WeatherDisplay:10.37,2013-06-16 10:50:00,
2013-06-16 12:55:00,83.7,71.5,29.72,South,180,2.0,4.0,67,0.00,CLR,,0.00,WeatherDisplay:10.37,2013-06-16 10:55:00,
2013-06-16 13:00:00,83.7,71.5,29.72,South,180,2.0,4.0,67,0.00,CLR,,0.00,WeatherDisplay:10.37,2013-06-16 11:00:00,
2013-06-16 13:05:00,83.5,70.9,29.72,South,173,2.0,7.0,66,0.00,CLR,,0.00,WeatherDisplay:10.37,2013-06-16 11:05:00,
2013-06-16 13:10:00,83.5,70.9,29.72,SSE,162,2.0,7.0,66,0.00,CLR,,0.00,WeatherDisplay:10.37,2013-06-16 11:10:00,
2013-06-16 13:15:00,83.5,70.9,29.72,SSE,158,2.0,7.0,66,0.00,CLR,,0.00,WeatherDisplay:10.37,2013-06-16 11:15:00,
2013-06-16 13:20:00,84.2,70.7,29.71,SE,143,2.0,7.0,64,0.00,CLR,,0.00,WeatherDisplay:10.37,2013-06-16 11:20:00,
2013-06-16 13:25:00,84.2,70.7,29.71,North,7,2.0,5.0,64,0.00,CLR,,0.00,WeatherDisplay:10.37,2013-06-16 11:25:00,
2013-06-16 13:30:00,84.2,70.7,29.71,North,0,2.0,5.0,64,0.00,CLR,,0.00,WeatherDisplay:10.37,2013-06-16 11:30:00,
2013-06-16 13:35:00,83.7,69.7,29.72,North,0,2.0,5.0,63,0.00,CLR,,0.00,WeatherDisplay:10.37,2013-06-16 11:35:00,
2013-06-16 13:40:00,83.7,69.7,29.72,South,180,2.0,4.0,63,0.00,CLR,,0.00,WeatherDisplay:10.37,2013-06-16 11:40:00,
2013-06-16 13:45:00,83.7,69.7,29.72,South,180,2.0,4.0,63,0.00,CLR,,0.00,WeatherDisplay:10.37,2013-06-16 11:45:00,
2013-06-16 13:50:00,83.5,69.6,29.71,South,170,1.0,4.0,63,0.00,CLR,,0.00,WeatherDisplay:10.37,2013-06-16 11:50:00,
2013-06-16 13:55:00,83.5,69.6,29.71,SE,146,1.0,3.0,63,0.00,CLR,,0.00,WeatherDisplay:10.37,2013-06-16 11:55:00,
2013-06-16 14:00:00,83.5,69.6,29.71,SE,135,1.0,3.0,63,0.00,CLR,,0.00,WeatherDisplay:10.37,2013-06-16 12:00:00,
2013-06-16 14:05:00,83.1,69.2,29.71,SSE,154,1.0,4.0,63,0.00,CLR,,0.00,WeatherDisplay:10.37,2013-06-16 12:05:00,
2013-06-16 14:10:00,83.1,69.2,29.71,South,190,1.0,4.0,63,0.00,CLR,,0.00,WeatherDisplay:10.37,2013-06-16 12:10:00,
2013-06-16 14:15:00,83.1,69.2,29.71,SSW,202,1.0,4.0,63,0.00,CLR,,0.00,WeatherDisplay:10.37,2013-06-16 12:15:00,
2013-06-16 14:20:00,83.3,69.8,29.71,SSW,206,1.0,4.0,64,0.00,CLR,,0.00,WeatherDisplay:10.37,2013-06-16 12:20:00,
2013-06-16 14:25:00,83.3,69.8,29.71,SW,217,1.0,2.0,64,0.00,CLR,,0.00,WeatherDisplay:10.37,2013-06-16 12:25:00,
2013-06-16 14:30:00,83.3,69.8,29.71,SW,225,1.0,2.0,64,0.00,CLR,,0.00,WeatherDisplay:10.37,2013-06-16 12:30:00,
2013-06-16 14:35:00,83.5,70.0,29.70,WSW,247,1.0,4.0,64,0.00,CLR,,0.00,WeatherDisplay:10.37,2013-06-16 12:35:00,
2013-06-16 14:40:00,83.5,70.0,29.70,West,266,1.0,4.0,64,0.00,CLR,,0.00,WeatherDisplay:10.37,2013-06-16 12:40:00,
2013-06-16 14:45:00,83.5,70.0,29.70,West,270,1.0,4.0,64,0.00,CLR,,0.00,WeatherDisplay:10.37,2013-06-16 12:45:00,
2013-06-16 14:50:00,82.9,69.5,29.70,West,260,1.0,4.0,64,0.00,CLR,,0.00,WeatherDisplay:10.37,2013-06-16 12:50:00,
2013-06-16 14:55:00,82.9,69.5,29.70,SSW,210,1.0,3.0,64,0.00,CLR,,0.00,WeatherDisplay:10.37,2013-06-16 12:55:00,
2013-06-16 15:00:00,82.9,69.5,29.70,South,180,1.0,3.0,64,0.00,CLR,,0.00,WeatherDisplay:10.37,2013-06-16 13:00:00,
2013-06-16 15:05:00,82.2,69.3,29.70,South,180,1.0,3.0,65,0.00,CLR,,0.00,WeatherDisplay:10.37,2013-06-16 13:05:00,
2013-06-16 15:10:00,82.2,69.3,29.70,South,180,1.0,2.0,65,0.00,CLR,,0.00,WeatherDisplay:10.37,2013-06-16 13:10:00,
2013-06-16 15:15:00,82.2,69.3,29.70,South,180,1.0,2.0,65,0.00,CLR,,0.00,WeatherDisplay:10.37,2013-06-16 13:15:00,
2013-06-16 15:20:00,82.2,69.7,29.71,SSW,199,1.0,3.0,66,0.00,CLR,,0.00,WeatherDisplay:10.37,2013-06-16 13:20:00,
2013-06-16 15:25:00,82.2,69.7,29.71,SW,236,1.0,3.0,66,0.00,CLR,,0.00,WeatherDisplay:10.37,2013-06-16 13:25:00,
2013-06-16 15:30:00,82.2,69.7,29.71,WSW,248,1.0,3.0,66,0.00,CLR,,0.00,WeatherDisplay:10.37,2013-06-16 13:30:00,
2013-06-16 15:35:00,82.8,67.9,29.71,West,261,2.0,4.0,61,0.00,CLR,,0.00,WeatherDisplay:10.37,2013-06-16 13:35:00,
2013-06-16 15:40:00,82.8,67.9,29.71,West,268,2.0,4.0,61,0.00,CLR,,0.00,WeatherDisplay:10.37,2013-06-16 13:40:00,
2013-06-16 15:45:00,82.8,67.9,29.71,West,270,2.0,4.0,61,0.00,CLR,,0.00,WeatherDisplay:10.37,2013-06-16 13:45:00,
2013-06-16 15:50:00,82.2,66.9,29.70,West,280,1.0,5.0,60,0.00,CLR,,0.00,WeatherDisplay:10.37,2013-06-16 13:50:00,
2013-06-16 15:55:00,82.2,66.9,29.70,NW,304,1.0,5.0,60,0.00,CLR,,0.00,WeatherDisplay:10.37,2013-06-16 13:55:00,
2013-06-16 16:00:00,82.2,66.9,29.70,NW,315,1.0,5.0,60,0.00,CLR,,0.00,WeatherDisplay:10.37,2013-06-16 14:00:00,
2013-06-16 16:05:00,81.0,65.3,29.71,NW,308,1.0,5.0,59,0.00,CLR,,0.00,WeatherDisplay:10.37,2013-06-16 14:05:00,
2013-06-16 16:10:00,81.0,65.3,29.71,WNW,286,1.0,4.0,59,0.00,CLR,,0.00,WeatherDisplay:10.37,2013-06-16 14:10:00,
2013-06-16 16:15:00,81.0,65.3,29.71,West,270,1.0,4.0,59,0.00,CLR,,0.00,WeatherDisplay:10.37,2013-06-16 14:15:00,
2013-06-16 16:20:00,80.1,64.9,29.71,West,281,1.0,4.0,60,0.00,CLR,,0.00,WeatherDisplay:10.37,2013-06-16 14:20:00,
2013-06-16 16:25:00,80.1,64.9,29.71,WNW,290,1.0,4.0,60,0.00,CLR,,0.00,WeatherDisplay:10.37,2013-06-16 14:25:00,
2013-06-16 16:30:00,80.1,64.9,29.71,WNW,292,1.0,4.0,60,0.00,CLR,,0.00,WeatherDisplay:10.37,2013-06-16 14:30:00,
2013-06-16 16:35:00,79.2,64.6,29.70,WNW,284,2.0,4.0,61,0.00,CLR,,0.00,WeatherDisplay:10.37,2013-06-16 14:35:00,
2013-06-16 16:40:00,79.2,64.6,29.70,West,273,2.0,4.0,61,0.00,CLR,,0.00,WeatherDisplay:10.37,2013-06-16 14:40:00,
2013-06-16 16:45:00,79.2,64.6,29.70,West,270,2.0,4.0,61,0.00,CLR,,0.00,WeatherDisplay:10.37,2013-06-16 14:45:00,
2013-06-16 16:50:00,78.6,64.5,29.71,West,270,3.0,4.0,62,0.00,CLR,,0.00,WeatherDisplay:10.37,2013-06-16 14:50:00,
2013-06-16 16:55:00,78.6,64.5,29.71,West,270,3.0,4.0,62,0.00,CLR,,0.00,WeatherDisplay:10.37,2013-06-16 14:55:00,
2013-06-16 17:00:00,78.6,64.5,29.71,West,270,3.0,4.0,62,0.00,CLR,,0.00,WeatherDisplay:10.37,2013-06-16 15:00:00,
2013-06-16 17:05:00,78.3,64.6,29.71,West,270,2.0,4.0,63,0.00,CLR,,0.00,WeatherDisplay:10.37,2013-06-16 15:05:00,
2013-06-16 17:10:00,78.3,64.6,29.71,West,270,2.0,4.0,63,0.00,CLR,,0.00,WeatherDisplay:10.37,2013-06-16 15:10:00,
2013-06-16 17:15:00,78.3,64.6,29.71,West,270,2.0,4.0,63,0.00,CLR,,0.00,WeatherDisplay:10.37,2013-06-16 15:15:00,
2013-06-16 17:20:00,77.7,65.0,29.71,West,270,2.0,4.0,65,0.00,CLR,,0.00,WeatherDisplay:10.37,2013-06-16 15:20:00,
2013-06-16 17:25:00,77.7,65.0,29.71,West,270,2.0,4.0,65,0.00,CLR,,0.00,WeatherDisplay:10.37,2013-06-16 15:25:00,
2013-06-16 17:30:00,77.7,65.0,29.71,West,270,2.0,4.0,65,0.00,CLR,,0.00,WeatherDisplay:10.37,2013-06-16 15:30:00,
2013-06-16 17:35:00,77.4,65.5,29.72,West,270,3.0,4.0,67,0.00,CLR,,0.00,WeatherDisplay:10.37,2013-06-16 15:35:00,
2013-06-16 17:40:00,77.4,65.5,29.72,West,270,3.0,4.0,67,0.00,CLR,,0.00,WeatherDisplay:10.37,2013-06-16 15:40:00,
2013-06-16 17:45:00,77.4,65.5,29.72,West,270,3.0,4.0,67,0.00,CLR,,0.00,WeatherDisplay:10.37,2013-06-16 15:45:00,
2013-06-16 17:50:00,76.6,65.7,29.72,West,265,2.0,4.0,69,0.00,CLR,,0.00,WeatherDisplay:10.37,2013-06-16 15:50:00,
2013-06-16 17:55:00,76.6,65.7,29.72,WSW,254,2.0,4.0,69,0.00,CLR,,0.00,WeatherDisplay:10.37,2013-06-16 15:55:00,
2013-06-16 18:00:00,76.6,65.7,29.72,WSW,248,2.0,4.0,69,0.00,CLR,,0.00,WeatherDisplay:10.37,2013-06-16 16:00:00,
2013-06-16 18:05:00,76.1,66.0,29.73,WSW,255,2.0,4.0,71,0.00,CLR,,0.00,WeatherDisplay:10.37,2013-06-16 16:05:00,
2013-06-16 18:10:00,76.1,66.0,29.73,West,266,2.0,3.0,71,0.00,CLR,,0.00,WeatherDisplay:10.37,2013-06-16 16:10:00,
2013-06-16 18:15:00,76.1,66.0,29.73,West,270,2.0,3.0,71,0.00,CLR,,0.00,WeatherDisplay:10.37,2013-06-16 16:15:00,
2013-06-16 18:20:00,75.4,66.1,29.73,WSW,253,3.0,4.0,73,0.00,CLR,,0.00,WeatherDisplay:10.37,2013-06-16 16:20:00,
2013-06-16 18:25:00,75.4,66.1,29.73,SW,231,3.0,4.0,73,0.00,CLR,,0.00,WeatherDisplay:10.37,2013-06-16 16:25:00,
2013-06-16 18:30:00,75.4,66.1,29.73,SW,225,3.0,4.0,73,0.00,CLR,,0.00,WeatherDisplay:10.37,2013-06-16 16:30:00,
2013-06-16 18:35:00,75.0,66.2,29.73,WSW,239,2.0,4.0,74,0.00,CLR,,0.00,WeatherDisplay:10.37,2013-06-16 16:35:00,
2013-06-16 18:40:00,75.0,66.2,29.73,West,276,2.0,4.0,74,0.00,CLR,,0.00,WeatherDisplay:10.37,2013-06-16 16:40:00,
2013-06-16 18:45:00,75.0,66.2,29.73,WNW,292,2.0,4.0,74,0.00,CLR,,0.00,WeatherDisplay:10.37,2013-06-16 16:45:00,
2013-06-16 18:50:00,75.0,66.6,29.73,West,279,0.0,4.0,75,0.00,CLR,,0.00,WeatherDisplay:10.37,2013-06-16 16:50:00,
2013-06-16 18:55:00,75.0,66.6,29.73,SSW,209,0.0,2.0,75,0.00,CLR,,0.00,WeatherDisplay:10.37,2013-06-16 16:55:00,
2013-06-16 19:00:00,75.0,66.6,29.73,South,180,0.0,2.0,75,0.00,CLR,,0.00,WeatherDisplay:10.37,2013-06-16 17:00:00,
2013-06-16 19:05:00,74.8,66.8,29.73,SSW,194,1.0,2.0,76,0.00,CLR,,0.00,WeatherDisplay:10.37,2013-06-16 17:05:00,
2013-06-16 19:10:00,74.8,66.8,29.73,WSW,247,1.0,2.0,76,0.00,CLR,,0.00,WeatherDisplay:10.37,2013-06-16 17:10:00,
2013-06-16 19:15:00,74.8,66.8,29.73,West,270,1.0,2.0,76,0.00,CLR,,0.00,WeatherDisplay:10.37,2013-06-16 17:15:00,
2013-06-16 19:20:00,74.8,66.8,29.74,West,270,1.0,2.0,76,0.00,CLR,,0.00,WeatherDisplay:10.37,2013-06-16 17:20:00,
2013-06-16 19:25:00,74.8,66.8,29.74,West,270,1.0,2.0,76,0.00,CLR,,0.00,WeatherDisplay:10.37,2013-06-16 17:25:00,
2013-06-16 19:30:00,74.8,66.8,29.74,West,270,1.0,2.0,76,0.00,CLR,,0.00,WeatherDisplay:10.37,2013-06-16 17:30:00,
2013-06-16 19:35:00,74.8,66.8,29.73,West,270,1.0,2.0,76,0.00,CLR,,0.00,WeatherDisplay:10.37,2013-06-16 17:35:00,
2013-06-16 19:40:00,74.8,66.8,29.73,East,90,1.0,2.0,76,0.00,CLR,,0.00,WeatherDisplay:10.37,2013-06-16 17:40:00,
2013-06-16 19:45:00,74.8,66.8,29.73,East,90,1.0,2.0,76,0.00,CLR,,0.00,WeatherDisplay:10.37,2013-06-16 17:45:00,
2013-06-16 19:50:00,74.5,66.8,29.74,ESE,109,0.0,2.0,77,0.00,CLR,,0.00,WeatherDisplay:10.37,2013-06-16 17:50:00,
2013-06-16 19:55:00,74.5,66.8,29.74,SE,130,0.0,1.0,77,0.00,CLR,,0.00,WeatherDisplay:10.37,2013-06-16 17:55:00,
2013-06-16 20:00:00,74.5,66.8,29.74,SE,135,0.0,1.0,77,0.00,CLR,,0.00,WeatherDisplay:10.37,2013-06-16 18:00:00,
2013-06-16 20:05:00,74.3,66.6,29.74,ESE,123,1.0,3.0,77,0.00,CLR,,0.00,WeatherDisplay:10.37,2013-06-16 18:05:00,
2013-06-16 20:10:00,74.3,66.6,29.74,East,87,1.0,3.0,77,0.00,CLR,,0.00,WeatherDisplay:10.37,2013-06-16 18:10:00,
2013-06-16 20:15:00,74.3,66.6,29.74,ENE,68,1.0,3.0,77,0.00,CLR,,0.00,WeatherDisplay:10.37,2013-06-16 18:15:00,
2013-06-16 20:20:00,73.9,67.0,29.73,ESE,111,0.0,3.0,79,0.00,CLR,,0.00,WeatherDisplay:10.37,2013-06-16 18:20:00,
2013-06-16 20:25:00,73.9,67.0,29.73,South,172,0.0,2.0,79,0.00,CLR,,0.00,WeatherDisplay:10.37,2013-06-16 18:25:00,
2013-06-16 20:30:00,73.9,67.0,29.73,South,180,0.0,2.0,79,0.00,CLR,,0.00,WeatherDisplay:10.37,2013-06-16 18:30:00,
2013-06-16 20:35:00,73.8,66.8,29.73,SSE,157,0.0,2.0,79,0.00,CLR,,0.00,WeatherDisplay:10.37,2013-06-16 18:35:00,
2013-06-16 20:40:00,73.8,66.8,29.73,ESE,104,0.0,2.0,79,0.00,CLR,,0.00,WeatherDisplay:10.37,2013-06-16 18:40:00,
2013-06-16 20:45:00,73.8,66.8,29.73,East,90,0.0,2.0,79,0.00,CLR,,0.00,WeatherDisplay:10.37,2013-06-16 18:45:00,
2013-06-16 20:50:00,73.6,67.0,29.73,ENE,77,0.0,2.0,80,0.00,CLR,,0.00,WeatherDisplay:10.37,2013-06-16 18:50:00,
2013-06-16 20:55:00,73.6,67.0,29.73,NE,54,0.0,1.0,80,0.00,CLR,,0.00,WeatherDisplay:10.37,2013-06-16 18:55:00,
2013-06-16 21:00:00,73.6,67.0,29.73,NE,45,0.0,1.0,80,0.00,CLR,,0.00,WeatherDisplay:10.37,2013-06-16 19:00:00,
2013-06-16 21:05:00,73.4,67.2,29.73,ENE,58,0.0,1.0,81,0.00,CLR,,0.00,WeatherDisplay:10.37,2013-06-16 19:05:00,
2013-06-16 21:10:00,73.4,67.2,29.73,East,81,0.0,1.0,81,0.00,CLR,,0.00,WeatherDisplay:10.37,2013-06-16 19:10:00,
2013-06-16 21:15:00,73.4,67.2,29.73,East,90,0.0,1.0,81,0.00,CLR,,0.00,WeatherDisplay:10.37,2013-06-16 19:15:00,
2013-06-16 21:20:00,73.4,67.2,29.73,East,90,1.0,3.0,81,0.00,CLR,,0.00,WeatherDisplay:10.37,2013-06-16 19:20:00,
2013-06-16 21:25:00,73.4,67.2,29.73,East,90,1.0,3.0,81,0.00,CLR,,0.00,WeatherDisplay:10.37,2013-06-16 19:25:00,
2013-06-16 21:30:00,73.4,67.2,29.73,East,90,1.0,3.0,81,0.00,CLR,,0.00,WeatherDisplay:10.37,2013-06-16 19:30:00,
2013-06-16 21:35:00,73.2,67.4,29.73,East,90,1.0,3.0,82,0.00,CLR,,0.00,WeatherDisplay:10.37,2013-06-16 19:35:00,
2013-06-16 21:40:00,73.2,67.4,29.73,East,90,1.0,2.0,82,0.00,CLR,,0.00,WeatherDisplay:10.37,2013-06-16 19:40:00,
2013-06-16 21:45:00,73.2,67.4,29.73,East,90,1.0,2.0,82,0.00,CLR,,0.00,WeatherDisplay:10.37,2013-06-16 19:45:00,
2013-06-16 21:50:00,73.0,67.2,29.73,East,90,1.0,2.0,82,0.00,CLR,,0.00,WeatherDisplay:10.37,2013-06-16 19:50:00,
2013-06-16 21:55:00,73.0,67.2,29.73,East,90,1.0,2.0,82,0.00,CLR,,0.00,WeatherDisplay:10.37,2013-06-16 19:55:00,
2013-06-16 22:00:00,73.0,67.2,29.73,East,90,1.0,2.0,82,0.00,CLR,,0.00,WeatherDisplay:10.37,2013-06-16 20:00:00,
2013-06-16 22:05:00,72.9,67.0,29.73,East,90,0.0,2.0,82,0.00,CLR,,0.00,WeatherDisplay:10.37,2013-06-16 20:05:00,
2013-06-16 22:10:00,72.9,67.0,29.73,East,90,0.0,1.0,82,0.00,CLR,,0.00,WeatherDisplay:10.37,2013-06-16 20:10:00,
2013-06-16 22:15:00,72.9,67.0,29.73,East,90,0.0,1.0,82,0.00,CLR,,0.00,WeatherDisplay:10.37,2013-06-16 20:15:00,
2013-06-16 22:20:00,72.7,66.9,29.73,East,90,1.0,2.0,82,0.00,CLR,,0.00,WeatherDisplay:10.37,2013-06-16 20:20:00,
2013-06-16 22:25:00,72.7,66.9,29.73,East,90,1.0,2.0,82,0.00,CLR,,0.00,WeatherDisplay:10.37,2013-06-16 20:25:00,
2013-06-16 22:30:00,72.7,66.9,29.73,East,90,1.0,2.0,82,0.00,CLR,,0.00,WeatherDisplay:10.37,2013-06-16 20:30:00,
2013-06-16 22:35:00,72.7,67.2,29.73,ENE,71,0.0,2.0,83,0.00,CLR,,0.00,WeatherDisplay:10.37,2013-06-16 20:35:00,
2013-06-16 22:40:00,72.7,67.2,29.73,NE,50,0.0,1.0,83,0.00,CLR,,0.00,WeatherDisplay:10.37,2013-06-16 20:40:00,
2013-06-16 22:45:00,72.7,67.2,29.73,NE,45,0.0,1.0,83,0.00,CLR,,0.00,WeatherDisplay:10.37,2013-06-16 20:45:00,
2013-06-16 22:50:00,72.3,66.9,29.73,NE,40,1.0,2.0,83,0.00,CLR,,0.00,WeatherDisplay:10.37,2013-06-16 20:50:00,
2013-06-16 22:55:00,72.3,66.9,29.73,NNE,29,1.0,2.0,83,0.00,CLR,,0.00,WeatherDisplay:10.37,2013-06-16 20:55:00,
2013-06-16 23:00:00,72.3,66.9,29.73,NNE,22,1.0,2.0,83,0.00,CLR,,0.00,WeatherDisplay:10.37,2013-06-16 21:00:00,
2013-06-16 23:05:00,72.1,66.7,29.73,ENE,65,0.0,2.0,83,0.00,CLR,,0.00,WeatherDisplay:10.37,2013-06-16 21:05:00,
2013-06-16 23:10:00,72.1,66.7,29.73,SE,127,0.0,1.0,83,0.00,CLR,,0.00,WeatherDisplay:10.37,2013-06-16 21:10:00,
2013-06-16 23:15:00,72.1,66.7,29.73,SE,135,0.0,1.0,83,0.00,CLR,,0.00,WeatherDisplay:10.37,2013-06-16 21:15:00,
2013-06-16 23:20:00,71.8,66.3,29.72,ESE,121,1.0,2.0,83,0.00,CLR,,0.00,WeatherDisplay:10.37,2013-06-16 21:20:00,
2013-06-16 23:25:00,71.8,66.3,29.72,ENE,68,1.0,2.0,83,0.00,CLR,,0.00,WeatherDisplay:10.37,2013-06-16 21:25:00,
2013-06-16 23:30:00,71.8,66.3,29.72,NE,45,1.0,2.0,83,0.00,CLR,,0.00,WeatherDisplay:10.37,2013-06-16 21:30:00,
2013-06-16 23:35:00,71.6,66.5,29.72,ENE,58,1.0,2.0,84,0.00,CLR,,0.00,WeatherDisplay:10.37,2013-06-16 21:35:00,
2013-06-16 23:40:00,71.6,66.5,29.72,East,81,1.0,2.0,84,0.00,CLR,,0.00,WeatherDisplay:10.37,2013-06-16 21:40:00,
2013-06-16 23:45:00,71.6,66.5,29.72,East,90,1.0,2.0,84,0.00,CLR,,0.00,WeatherDisplay:10.37,2013-06-16 21:45:00,
2013-06-16 23:50:00,71.4,66.3,29.72,East,90,0.0,2.0,84,0.00,CLR,,0.00,WeatherDisplay:10.37,2013-06-16 21:50:00,
2013-06-16 23:55:00,71.4,66.3,29.72,East,90,0.0,0.0,84,0.00,CLR,,0.00,WeatherDisplay:10.37,2013-06-16 21:55:00,